Espaço - Ciências - Fenômenos Naturais
Meteógrafos Informações Meteorológicas em tempo real

Aeroporto de Londrina

Histórico do Tempo
Temperatura atual: 18 graus 64 F    Umidade relativa: 88 %
Velocidade do vento: 07 nós 12 Km/h    Direção: 300 graus WNW
Ajuste do altímetro ..: 1013 HPA
Visibilidade: Ótima    Tempo presente: Parcialmente Nublado

Observação
Nuvens esparsas a 1200 Pés., Nuvens esparsas a 2500 Pés., Céu nublado a 10000 Pés.

Data Hora BRTTempo°CUmidadePressãoVentoVisib.
24/05 - 07:56   Parcialmente Nublado 18° 88% 1013 Oeste-noroeste/12 km/h OK
24/05 - 06:56   Parcialmente Nublado 18° 93% 1013 Oeste-noroeste/9 km/h OK
24/05 - 05:56   Chuvisco fraco 18° 93% 1013 Oeste-noroeste/14 km/h 3000
24/05 - 04:56   Névoa úmida 19° 93% 1013 Noroeste/12 km/h 4000
24/05 - 03:56   Névoa úmida 18° 100% 1014 Norte/5 km/h 2500
24/05 - 02:56   Chovendo fraco 18° 100% 1013 Nordeste/7 km/h 4000
24/05 - 01:56   Chovendo fraco 18° 100% 1014 Norte/0 km/h 3500
24/05 - 00:56   Chovendo fraco 18° 100% 1014 Este-nordeste/9 km/h 3000
23/05 - 23:56   Chovendo fraco 19° 93% 1015 Norte/0 km/h 3000
23/05 - 22:56   Chovendo fraco 19° 93% ND Norte/0 km/h 3000
23/05 - 21:56   Chovendo fraco 19° 93% 1015 Norte/0 km/h 4000
23/05 - 20:56   Parcialmente Nublado 19° 93% 1015 Norte/0 km/h OK
23/05 - 19:56   Chovendo fraco 19° 93% 1014 Sul/5 km/h 8000
23/05 - 18:56   Chovendo fraco 20° 88% 1015 Norte/0 km/h OK
23/05 - 17:56   Céu Limpo 21° 83% 1015 Norte/0 km/h OK
23/05 - 16:56   Céu Limpo 22° 78% 1014 Norte/0 km/h OK
23/05 - 15:56   Parcialmente Nublado 21° 77% 1014 Norte/0 km/h OK
23/05 - 14:56   Não Disponível 22° 78% 1014 Sul/9 km/h OK
23/05 - 13:56   Não Disponível 22° 78% 1015 Norte/0 km/h OK
23/05 - 12:56   Não Disponível 22° 78% 1016 Norte/0 km/h OK
23/05 - 11:56   Não Disponível 21° 83% 1017 Norte/0 km/h OK
23/05 - 10:56   Não Disponível 21° 77% 1017 Este-sudeste/1 km/h OK
23/05 - 09:56   Não Disponível 20° 82% 1017 Norte/0 km/h OK
23/05 - 08:56   Céu Limpo 19° 88% 1017 Norte/0 km/h OK


Apolo11.com - Todos os direitos reservados - 2000 - 2019
Política de Privacidade   |     Termo de Uso e Licenciamento   |  -   Entre em Contato

"Política é a guerra sem sangue enquanto a guerra é a política com sangue" - Mao Tsé-Tung